Location: Hartman Creek State Park
(44.3257°N, 89.2134°W)
Time: 12:23:36
(UTC-05:00)

Terra - Visible Passes

Search period start: 25 September 2016 00:00
Search period end: 05 October 2016 00:00
Orbit: 702 x 703 km, 98.2° (Epoch: 25 September)

Date Brightness Start Highest point End Pass type
(mag) Time Alt. Az. Time Alt. Az. Time Alt. Az.
25 Sep 4.4 21:43:33 11° NNE 21:43:33 11° NNE 21:43:43 10° NNE visible
26 Sep 4.6 22:26:56 12° N 22:26:56 12° N 22:27:21 10° N visible
28 Sep 4.6 22:14:48 11° N 22:14:48 11° N 22:14:58 10° N visible
